Probability
0 0 0 0 0 0 0 0 0 0 0 0 0 0 0 0 0 0 0 0 0 0 0 0 0 0 0 0 0 0 0 0 0 0 0 0 0 0 0 0 0 0 0 0
0 0 0 0 0 0 0 0 0 0 0 0 0 0 0 0 0 0 0 0 0 0 0 0 0 0 0 0 0 0 0 0 0 0 0 0 0 0 0 0 0 0 0 0
0 0 0 0 0 0 0 0 0 0 0 0 0 0 0 0 0 0 0 0 0 0 0 0 0 0 0 0 0 0 0 0 0 0 0 0 0 0 0 0 0 0 0 0
0 0 0 0 0 0 0 0 0 0 0 0 0 0 0 0 0 0 0 0 0 0 0 0 0 0 0 0 0 0 0 0 0 0 0 0 0 0 0 0 0 0 0 0
0 0 0 0 0 0 0 0 0 0 0 0 0 0 0 0 0 0 0 0 0 0 0 0 0 0 0 0 0 0 0 0 0 0 0 0 0 0 0 0 0 0 0 0
0 0 0 0 0 0 0 0 0 0 0 0 0 0 0 0 0 0 0 0 0 0 0 0 0 0 0 0 0 0 0 0 0 0 0 0 0 0 0 0 0 0 0 0
0 0 0 0 0 0 0 0 0 0 0 0 0 0 0 0 0 0 0 0 0 0 0 0 0 0 0 0 0 0 0 0 0 0 0 0 0 0 0 0 0 0 0 0
0 0 0 0 0 0 0 0 0 0 0 0 0 0 0 0 0 0 0 0 0 0 0 0 0 0 0 0 0 0 0 0 0 0 0 0 0 0 0 0 0 0 0 0
0 0 0 0 0 0 0 0 0 0 0 0 0 0 0 0 0 0 0 0 0 0 0 0 0 0 0 0 0 0 0 0 0 0 0 0 0 0 0 0 0 0 0 0
0 0 0 0 0 0 0 0 0 0 0 0 0 0 0 0 0 0 0 0 0 0 0 0 0 0 0 0 0 0 0 0 0 0 0 0 0 0 0 0 0 0 0 0
0 0 0 0 0 0 0 0 0 0 0 0 0 0 0 0 0 0 0 0 0 0 0 0 0 0 0 0 0 0 0 0 0 0 0 0 0 0 0 0 0 0 0 0
0 0 0 0 0 0 0 0 0 0 0 0 0 0 0 0 0 0 0 0 0 0 0 0 0 0 0 0 0 0 0 0 0 0 0 0 0 0 0 0 0 0 0 0
0 0 0 0 0 0 0 0 0 0 0 0 0 0 0 0 0 0 0 0 0 0 0 0 0 0 0 0 0 0 0 0 0 0 0 0 0 0 0 0 0 0 0 0
0 0 0 0 0 0 0 0 0 0 0 0 0 0 0 0 0 0 0 0 0 0 0 0 0 0 0 0 0 0 0 0 0 0 0 0 0 0 0 0 0 0 0 0
0 0 0 0 0 0 0 0 0 0 0 0 0 0 0 0 0 0 0 0 0 0 0 0 0 0 0 0 0 0 0 0 0 0 0 0 0 0 0 0 0 0 0 0
0 0 0 0 0 0 0 0 0 0 0 0 0 0 0 0 0 0 0 0 0 0 0 0 0 0 0 0 0 0 0 0 0 0 0 0 0 0 0 0 0 0 0 0
0 0 0 0 0 0 0 0 0 0 0 0 0 0 0 0 0 0 0 0 0 0 0 0 0 0 0 0 0 0 0 0 0 0 0 0 0 0 0 0 0 0 0 0
0 0 0 0 0 0 0 0 0 0 0 0 0 0 0 0 0 0 0 0 0 0 0 0 0 0 0 0 0 0 0 0 0 0 0 0 0 0 0 0 0 0 0 0
0 0 0 0 0 0 0 0 0 0 0 0 0 0 0 0 0 0 0 0 0 0 0 0 0 0 0 0 0 0 0 0 0 0 0 0 0 0 0 0 0 0 0 0
0 0 0 0 0 0 0 0 0 0 0 0 0 0 0 0 0 0 0 0 0 0 0 0 0 0 0 0 0 0 0 0 0 0 0 0 0 0 0 0 0 0 0 0
0 0 0 0 0 0 0 0 0 0 0 0 0 0 0 0 0 0 0 0 0 0 0 0 0 0 0 0 0 0 0 0 0 0 0 0 0 0 0 0 0 0 0 0
0 0 0 0 0 0 0 0 0 0 0 0 0 0 0 0 0 0 0 0 0 0 0 0 0 0 0 0 0 0 0 0 0 0 0 0 0 0 0 0 0 0 0 0
0 0 0 0 0 0 0 0 0 0 0 0 0 0 0 0 0 0 0 0 0 0 0 0 0 0 0 0 0 0 0 0 0 0 0 0 0 0 0 0 0 0 0 0
0 0 0 0 0 0 0 0 0 0 0 0 0 0 0 0 0 0 0 0 0 0 0 0 0 0 0 0 0 0 0 0 0 0 0 0 0 0 0 0 0 0 0 0
0 0 0 0 0 0 0 0 0 0 0 0 0 0 0 0 0 0 0 0 0 0 0 0 0 0 0 0 0 0 0 0 0 0 0 0 0 0 0 0 0 0 0 0
0 0 0 0 0 0 0 0 0 0 0 0 0 0 0 0 0 0 0 0 0 0 0 0 0 0 0 0 0 0 0 0 0 0 0 0 0 0 0 0 0 0 0 0
0 0 0 0 0 0 0 0 0 0 0 0 0 0 0 0 0 0 0 0 0 0 0 0 0 0 0 0 0 0 0 0 0 0 0 0 0 0 0 0 0 0 0 0
Wind_Speed
6 5 1 2 3 2 2 4 6 3 4 1 4 5 6 6 7 8 9 9 9 9 8 8 9 9 9 10 10 10 10 9 9 8 6 6 6 5 4 3 3 2 3 3
3 3 2 1 2 2 3 3 3 5 3 2 4 5 7 8 8 8 10 11 11 11 10 10 10 10 10 10 10 10 10 10 8 7 6 6 6 6 5 4 2 2 1 1
4 3 1 2 4 3 4 4 3 2 2 5 7 9 10 10 9 9 11 12 12 12 11 10 10 9 9 9 9 9 10 9 8 7 7 6 6 6 6 5 4 3 2 1
1 1 1 1 4 6 6 4 5 3 5 7 9 11 11 8 6 9 11 12 12 11 11 11 10 10 9 9 8 8 9 9 8 7 8 7 6 7 7 5 5 4 4 3
2 0 2 2 3 4 2 1 4 5 8 10 10 8 6 6 6 9 11 12 11 11 11 10 11 10 9 10 9 9 9 9 9 8 8 8 7 7 7 6 6 6 5 5
3 1 1 2 7 8 2 1 3 6 9 10 9 7 7 8 10 13 13 12 11 11 10 10 11 9 8 10 10 10 10 9 9 8 8 9 8 7 6 7 8 7 6 6
3 1 2 5 11 8 2 5 8 8 9 10 7 9 11 12 13 13 13 14 13 11 10 10 10 8 9 10 11 11 10 9 9 8 8 9 8 7 6 7 8 8 8 6
3 3 3 7 7 4 4 7 7 9 10 10 12 13 14 14 13 13 14 13 12 11 11 10 9 8 10 11 12 11 10 10 10 9 9 8 8 7 6 7 9 9 8 7
2 1 2 2 2 6 6 8 9 8 11 13 13 14 15 13 13 13 13 13 11 11 11 11 10 9 11 12 11 10 10 10 10 10 9 8 8 8 6 7 8 8 8 8
2 1 3 5 6 7 7 9 10 12 13 13 14 15 16 14 13 12 13 12 12 11 12 12 11 11 11 12 11 10 11 10 9 9 9 8 7 6 6 6 8 9 10 9
1 4 7 6 7 8 9 11 13 13 13 13 14 16 16 14 14 13 13 13 11 12 13 14 13 12 12 12 11 11 11 10 9 9 9 8 7 7 7 7 9 10 11 11
3 6 5 9 9 10 11 12 14 15 14 13 14 17 17 16 14 14 14 13 13 13 14 14 13 13 12 11 10 10 9 9 8 7 7 7 7 7 9 10 12 15 14 13
6 6 7 11 11 10 10 13 16 16 16 18 16 16 17 16 15 13 14 15 15 15 15 14 13 13 12 10 10 10 10 10 8 8 8 7 7 6 7 5 8 13 15 16
7 6 8 9 11 13 15 17 16 15 15 16 16 16 16 17 15 15 16 16 15 15 14 13 13 13 13 10 10 10 10 11 10 8 8 8 7 6 6 5 4 6 9 14
8 7 10 12 12 13 14 15 16 17 16 16 15 16 17 17 17 17 16 16 15 15 15 13 13 14 12 10 10 10 9 8 8 7 7 7 7 6 6 6 5 6 7 8
9 11 11 12 14 16 16 17 17 16 17 17 16 16 17 17 17 18 17 16 15 16 15 13 14 14 11 10 9 8 8 14 13 7 7 7 7 6 6 5 5 7 10 10
8 9 11 14 15 16 16 16 15 16 17 18 19 19 18 18 18 18 17 16 15 16 15 14 14 13 11 9 8 7 7 9 14 9 7 7 6 6 5 5 5 7 9 11
9 11 13 15 16 17 18 17 16 17 18 19 20 19 19 19 19 19 19 17 16 16 15 14 12 11 9 9 7 7 6 6 6 7 6 6 5 5 4 4 6 8 8 10
12 12 13 15 15 16 16 17 17 17 18 18 19 19 19 19 19 19 18 17 17 16 14 11 12 11 9 10 10 6 6 6 6 6 5 6 5 4 4 4 5 7 9 10
12 13 14 15 15 15 16 17 17 18 18 18 19 19 19 19 19 18 17 16 13 12 11 11 10 9 8 8 9 5 6 6 6 5 4 4 4 4 4 5 6 7 9 10
13 14 15 15 15 16 16 17 17 19 19 19 19 20 20 20 19 17 15 14 13 12 10 10 8 6 6 6 7 5 5 5 5 4 4 3 3 3 3 5 6 7 8 9
11 12 14 15 15 16 16 16 16 19 20 20 20 20 20 19 18 16 14 11 11 12 9 6 5 6 7 6 4 4 5 4 4 3 3 2 2 2 3 5 6 7 8 9
11 11 13 14 15 17 17 16 17 18 19 20 21 20 19 17 14 13 13 10 9 11 8 6 6 8 8 5 4 4 4 4 3 3 2 2 2 2 3 5 6 6 7 8
10 11 12 13 14 14 17 19 18 17 18 19 18 18 17 14 12 10 9 12 12 12 7 6 8 8 6 3 2 3 3 3 2 2 2 2 2 2 3 4 5 6 7 9
10 10 11 14 14 13 15 17 17 17 17 15 17 17 14 11 12 12 11 11 12 10 7 6 7 6 3 1 1 2 2 2 2 2 2 2 2 2 3 4 5 6 6 7
9 10 10 12 11 12 13 13 13 14 14 15 15 14 13 12 12 11 9 10 11 9 7 5 4 3 1 1 1 1 1 2 2 2 2 2 2 3 3 4 6 5 6 6
9 8 8 10 10 11 12 12 13 14 14 15 16 14 14 13 12 12 12 10 8 7 6 5 4 3 2 1 0 0 1 1 1 1 1 1 2 3 3 5 4 4 5 5
Wind_Direction
235 247 222 251 307 349 183 215 211 202 132 353 328 326 323 327 338 351 353 351 347 341 334 332 331 330 329 328 328 328 323 310 289 277 260 242 230 228 230 234 248 275 304 324
277 266 206 190 358 22 39 34 87 99 83 336 319 324 329 332 335 342 345 343 337 332 327 324 321 318 320 321 323 325 324 316 308 293 274 255 235 223 220 220 229 238 282 336
262 286 95 348 354 66 63 22 46 76 357 334 334 334 327 324 326 329 333 329 324 319 313 308 304 301 302 303 311 321 321 317 318 309 289 272 249 223 217 209 203 209 208 167
250 45 219 47 45 86 95 61 45 33 346 336 324 313 302 301 310 318 318 314 309 306 303 300 297 295 294 297 301 308 315 317 313 313 304 290 265 238 220 202 197 200 193 178
101 147 114 96 26 7 333 68 38 355 330 324 318 309 290 289 301 300 298 294 292 290 290 291 293 293 296 296 295 297 302 308 311 304 300 293 277 255 228 204 197 196 187 177
73 5 354 2 326 323 277 178 17 331 314 315 325 316 291 294 303 303 300 298 295 293 291 291 290 291 289 290 291 289 289 293 299 299 295 290 278 267 239 212 201 193 187 180
50 36 61 333 319 335 4 314 312 303 297 298 287 270 281 292 296 293 294 296 296 295 292 288 288 291 287 287 283 282 284 287 291 290 290 287 277 269 246 217 199 192 185 180
15 14 357 343 12 35 278 277 282 288 288 288 285 286 291 294 293 293 294 294 294 291 288 287 286 287 286 283 280 284 285 285 287 287 288 294 282 275 254 219 199 189 184 179
62 101 246 292 246 253 258 276 284 284 287 292 293 293 294 292 290 290 287 287 286 281 283 284 281 278 278 280 282 285 284 281 282 284 282 284 277 273 262 225 202 188 186 186
83 344 285 282 271 270 273 275 282 287 290 292 290 290 291 290 287 285 283 282 280 278 279 280 279 276 272 277 281 282 282 281 280 281 281 281 273 264 257 233 211 195 188 186
6 286 298 289 280 285 295 296 295 295 294 290 289 290 289 288 286 283 282 278 274 271 271 274 274 272 273 276 277 277 279 280 279 276 274 276 273 263 254 243 222 202 193 183
245 251 254 274 282 294 295 291 293 296 294 287 285 286 288 287 285 284 282 280 277 273 271 272 272 272 273 272 271 273 278 279 275 273 272 271 274 280 259 245 230 211 198 182
247 265 263 274 285 287 285 287 292 292 290 292 290 286 287 286 287 283 283 284 281 278 276 275 272 272 272 271 269 269 270 275 275 272 270 271 270 271 284 277 226 201 190 181
267 281 288 285 288 292 292 292 292 289 288 287 290 291 291 290 290 289 289 287 284 282 280 276 273 272 272 268 265 267 269 276 277 268 266 266 264 257 263 262 227 191 186 180
288 286 278 286 289 291 294 297 300 299 298 296 295 294 295 294 294 292 291 290 288 285 282 279 276 276 273 266 262 265 269 272 271 266 263 263 260 256 258 252 217 186 161 164
292 295 292 295 297 300 303 304 303 300 300 301 301 298 296 293 293 293 294 292 290 287 283 280 278 278 274 266 263 265 266 276 281 269 263 263 258 253 254 237 203 183 173 162
300 299 300 303 304 303 303 302 300 301 302 303 302 302 300 298 296 295 294 291 286 284 282 279 279 279 274 266 263 265 266 274 281 276 263 262 256 249 247 223 191 182 172 165
285 286 291 296 303 307 307 305 303 303 303 303 304 304 302 301 299 298 298 296 292 288 283 279 278 280 275 272 265 261 263 265 266 267 266 261 253 246 233 206 186 178 159 155
303 299 300 301 303 303 304 305 306 305 304 306 306 305 303 300 299 298 298 297 294 292 288 281 281 282 277 274 277 259 260 264 266 267 262 257 254 242 213 192 178 170 156 156
302 302 304 304 305 306 306 307 307 308 308 308 308 306 305 304 303 302 300 295 289 286 285 285 285 278 271 270 277 263 262 266 269 272 264 254 240 226 199 182 172 165 160 163
305 308 309 310 310 308 307 309 311 311 311 311 310 309 308 307 307 306 302 299 295 292 290 284 279 272 267 264 271 262 261 262 263 265 264 250 233 209 186 176 170 165 164 166
306 309 311 312 312 314 315 314 314 314 315 315 315 314 313 313 313 310 301 297 298 299 298 290 279 269 265 265 259 257 255 254 253 256 252 238 226 199 182 173 166 165 165 165
307 308 311 313 315 314 315 318 321 320 319 319 318 319 318 315 313 313 313 312 310 308 305 295 285 280 277 267 254 249 247 244 241 233 232 225 214 202 183 169 163 164 162 163
310 311 312 312 315 318 322 324 324 321 320 319 318 320 320 318 316 313 309 312 316 314 313 307 299 296 292 268 239 232 230 229 222 215 218 220 215 201 178 168 164 162 163 164
312 313 316 323 327 326 323 323 324 324 325 324 323 324 324 320 319 321 321 323 327 327 331 329 322 314 301 266 232 218 217 218 212 210 216 216 200 188 171 165 164 161 163 166
315 318 318 317 318 321 324 326 325 326 327 327 327 328 328 327 328 331 331 331 336 338 339 336 334 332 319 276 213 204 213 212 209 213 200 191 183 173 162 161 161 162 164 166
316 317 319 325 327 328 327 327 326 327 329 330 330 330 332 335 338 341 342 343 345 347 347 345 344 350 358 9 38 173 204 205 198 180 169 168 157 150 151 151 151 153 155 158